Location: Newark
(42.4678°N, 122.8017°W)
Time: 22:43:59
(UTC+00:00)

N. Korean satellite - Pass Details

Date: 30 September 2020
Orbit: 452 x 505 km, 97.2° (Epoch: 28 October)

Event Time Altitude Azimuth Distance (km) Brightness Sun altitude
Rises 12:34:19 0° 36° (NE) 2,566 11.0 -18.0°
Reaches altitude 10° 12:38:06 10° 77° (ENE) 1,661 10.6 -17.3°
Maximum altitude 12:38:52 11° 90° (E) 1,623 10.4 -17.2°
Drops below altitude 10° 12:39:37 10° 102° (ESE) 1,651 10.3 -17.0°
Sets 12:43:19 0° 144° (SE) 2,503 10.5 -16.4°
